time_stamp(utc),avg(mph),gust(mph),direction(deg),12m_air_temp(f),sonic_u(cm/s),sonic_v(cm/s),sonic_w(cm/s),pressure,2m_air_temp(f),pyranometer(W/m^2)
"2017-11-07 00:02:42+00",5.7,5.7,,62,-216,109,11,1014.76,60.6,0
"2017-11-07 00:07:42+00",5.1,6.1,,62,-200,95,11,1014.81,60.7,0
"2017-11-07 00:12:42+00",6.3,7.3,,62.1,-234,152,13,1014.84,60.8,0
"2017-11-07 00:17:42+00",7.3,8.3,,62.2,-261,188,22,1014.87,60.8,0
"2017-11-07 00:22:42+00",7.1,8.1,,62.1,-275,160,18,1014.89,60.9,0
"2017-11-07 00:27:42+00",8.9,9.9,,62.1,-312,232,22,1014.91,61,0
"2017-11-07 00:32:42+00",10.1,11.1,,62.5,-368,253,24,1014.97,61,0
"2017-11-07 00:37:42+00",8.5,9.5,,62.2,-333,173,24,1015,61,0
"2017-11-07 00:42:42+00",8.6,9.6,,62.1,-330,206,22,1015,61,0
"2017-11-07 00:47:42+00",8.5,9.5,,62.2,-312,219,17,1015.08,60.9,0
"2017-11-07 00:52:42+00",7.0,7.0,,62.3,-227,204,24,1015.02,60.9,0
"2017-11-07 00:57:42+00",7.0,8.0,,62.3,-213,210,21,1015.09,60.9,0
"2017-11-07 01:02:42+00",9.1,10.1,,62,-254,295,25,1015.25,60.8,0
"2017-11-07 01:07:42+00",9.5,10.5,,62.3,-233,337,22,1015.29,60.8,0
"2017-11-07 01:12:42+00",11.6,14.6,,62.3,-241,447,25,1015.37,60.9,0
"2017-11-07 01:17:42+00",11.6,14.6,,62.4,-196,460,25,1015.42,61,0
"2017-11-07 01:22:42+00",16.6,18.6,,62.6,-284,667,38,1015.52,61,0
"2017-11-07 01:27:42+00",18.7,22.7,,62.6,-310,763,40,1015.7,61.1,0
"2017-11-07 01:32:42+00",17.6,20.6,,62.2,-234,754,44,1015.84,61.1,0
"2017-11-07 01:37:42+00",19.0,21.0,,61.5,-227,821,28,1015.97,60.7,0
"2017-11-07 01:42:42+00",18.6,21.6,,61.1,-150,815,28,1016.08,60.3,0
"2017-11-07 01:47:42+00",18.2,21.2,,60.8,-168,784,24,1016.2,60,0
"2017-11-07 01:52:42+00",16.1,18.1,,60.4,-179,682,24,1016.26,59.7,0
"2017-11-07 01:57:42+00",15.3,17.3,,60,-159,649,37,1016.26,59.3,0
"2017-11-07 02:02:42+00",15.3,18.3,,59.7,-170,664,32,1016.38,59,0
"2017-11-07 02:07:42+00",15.3,18.3,,59.5,-143,665,26,1016.52,58.8,0
"2017-11-07 02:12:42+00",14.7,16.7,,59.3,-163,635,24,1016.58,58.6,0
"2017-11-07 02:17:42+00",14.8,15.8,,59.1,-159,626,26,1016.68,58.4,0
"2017-11-07 02:22:42+00",14.5,17.5,,58.9,-100,625,34,1016.86,58.2,0
"2017-11-07 02:27:42+00",16.4,19.4,,58.7,-172,705,43,1016.97,58,0
"2017-11-07 02:32:42+00",13.2,15.2,,58.3,-69,567,18,1017.2,57.8,0
"2017-11-07 02:37:42+00",10.1,12.1,,58.1,-69,439,17,1017.17,57.5,0
"2017-11-07 02:42:42+00",11.0,13.0,,57.7,-135,463,18,1017.21,57.2,0
"2017-11-07 02:47:42+00",17.5,19.5,,57.5,-216,744,21,1017.42,56.9,0
"2017-11-07 02:52:42+00",17.7,19.7,,57.1,-180,762,32,1017.38,56.6,0
"2017-11-07 02:57:42+00",16.5,19.5,,56.9,-111,721,18,1017.33,56.3,0
"2017-11-07 03:02:42+00",16.8,17.8,,56.4,-277,691,46,1017.54,56,0
"2017-11-07 03:07:42+00",16.0,19.0,,56.2,-173,679,24,1017.44,55.8,0
"2017-11-07 03:12:42+00",13.2,16.2,,55.8,-41,580,25,1017.48,55.5,0
"2017-11-07 03:17:42+00",17.4,22.4,,55.5,-119,762,12,1017.56,55.1,0
"2017-11-07 03:22:42+00",17.6,19.6,,54.9,-179,748,35,1017.65,54.7,0
"2017-11-07 03:27:42+00",20.0,23.0,,54.3,-305,833,40,1017.78,54.4,0
"2017-11-07 03:32:42+00",18.2,22.2,,53.9,-265,759,55,1017.92,54,0
"2017-11-07 03:37:42+00",17.4,20.4,,53.6,-128,752,24,1017.96,53.6,0
"2017-11-07 03:42:42+00",20.6,24.6,,53.3,-157,889,25,1018.25,53.3,0
"2017-11-07 03:47:42+00",18.7,20.7,,53,-187,804,27,1018.28,52.9,0
"2017-11-07 03:52:42+00",17.7,21.7,,52.8,-198,749,33,1018.3,52.7,0
"2017-11-07 03:57:42+00",17.0,19.0,,52.6,-90,747,26,1018.31,52.4,0
"2017-11-07 04:02:42+00",11.7,13.7,,52.4,-132,495,36,1018.35,52.3,0
"2017-11-07 04:07:42+00",14.2,18.2,,52.2,-227,577,32,1018.34,52.1,0
"2017-11-07 04:12:42+00",14.6,16.6,,51.8,-93,634,17,1018.53,51.8,0
"2017-11-07 04:17:42+00",16.9,19.9,,51.5,-127,723,31,1018.49,51.5,0
"2017-11-07 04:22:42+00",14.8,17.8,,51.3,-98,643,20,1018.71,51.2,0
"2017-11-07 04:27:42+00",13.2,15.2,,51.1,-140,561,28,1018.67,50.9,0
"2017-11-07 04:32:42+00",15.0,16.0,,51,-131,649,13,1018.61,50.7,0
"2017-11-07 04:37:42+00",16.9,18.9,,50.8,-124,732,16,1018.55,50.5,0
"2017-11-07 04:42:42+00",14.8,17.8,,50.6,-119,645,14,1018.61,50.2,0
"2017-11-07 04:47:42+00",15.1,19.1,,50.4,-89,654,6,1018.64,50.1,0
"2017-11-07 04:52:42+00",13.3,16.3,,50.2,-145,573,32,1018.62,50,0
"2017-11-07 04:57:42+00",11.6,13.6,,50,-68,502,35,1018.55,49.7,0
"2017-11-07 05:02:42+00",14.1,16.1,,49.9,-76,610,49,1018.46,49.6,0
"2017-11-07 05:07:42+00",14.4,16.4,,49.8,-25,633,22,1018.46,49.3,0
"2017-11-07 05:12:42+00",12.1,14.1,,49.6,-79,516,44,1018.45,49.2,0
"2017-11-07 05:17:42+00",17.3,22.3,,49.4,17,752,-7,1018.25,48.9,0
"2017-11-07 05:22:42+00",12.5,14.5,,49.2,-21,554,18,1018.24,48.7,0
"2017-11-07 05:27:42+00",15.8,18.8,,49.1,13,696,10,1018.27,48.4,0
"2017-11-07 05:32:42+00",17.7,19.7,,49,-69,772,34,1018.44,48.3,0
"2017-11-07 05:37:42+00",15.7,18.7,,48.9,-132,682,12,1018.57,48.3,0
"2017-11-07 05:42:42+00",17.0,20.0,,48.8,-204,722,22,1018.71,48.2,0
"2017-11-07 05:47:42+00",13.7,17.7,,48.5,-179,578,25,1018.73,48.2,0
"2017-11-07 05:52:42+00",15.4,18.4,,48.3,-151,649,10,1018.78,48,0
"2017-11-07 05:57:42+00",16.0,19.0,,48.1,-192,678,19,1018.95,47.8,0
"2017-11-07 06:02:42+00",14.9,17.9,,47.9,-163,618,19,1019.13,47.7,0
"2017-11-07 06:07:42+00",14.0,17.0,,47.7,-189,587,35,1019.24,47.5,0
"2017-11-07 06:12:42+00",15.0,18.0,,47.5,-176,638,29,1019.39,47.4,0
"2017-11-07 06:17:42+00",13.8,15.8,,47.3,-98,600,24,1019.52,47.1,0
"2017-11-07 06:22:42+00",13.3,16.3,,47.2,-147,562,15,1019.54,46.9,0
"2017-11-07 06:27:42+00",13.0,16.0,,47,-153,550,29,1019.55,46.7,0
"2017-11-07 06:32:42+00",11.3,13.3,,46.9,-154,478,45,1019.54,46.6,0
"2017-11-07 06:37:42+00",14.3,17.3,,46.7,-70,616,11,1019.45,46.4,0
"2017-11-07 06:42:42+00",13.8,14.8,,46.6,-46,607,23,1019.53,46.2,0
"2017-11-07 06:47:42+00",13.4,17.4,,46.5,-21,589,16,1019.62,46,0
"2017-11-07 06:52:42+00",15.2,17.2,,46.4,-45,663,13,1019.56,45.8,0
"2017-11-07 06:57:42+00",13.4,15.4,,46.2,-18,585,15,1019.56,45.6,0
"2017-11-07 07:02:42+00",11.9,13.9,,46.1,-54,523,15,1019.59,45.5,0
"2017-11-07 07:07:42+00",13.4,14.4,,46,-16,585,11,1019.59,45.3,0
"2017-11-07 07:12:42+00",12.4,16.4,,45.9,-40,529,20,1019.58,45.2,0
"2017-11-07 07:17:42+00",10.0,12.0,,45.7,-15,422,15,1019.59,45.1,0
"2017-11-07 07:22:42+00",11.8,13.8,,45.5,10,518,1,1019.59,44.9,0
"2017-11-07 07:27:42+00",14.8,17.8,,45.4,22,647,12,1019.58,44.7,0
"2017-11-07 07:32:42+00",14.6,17.6,,45.4,-33,639,15,1019.73,44.6,0
"2017-11-07 07:37:42+00",11.8,13.8,,45.3,-69,504,17,1019.72,44.6,0
"2017-11-07 07:42:42+00",11.4,13.4,,45.2,-82,500,33,1019.75,44.5,0
"2017-11-07 07:47:42+00",12.7,14.7,,45,-14,554,13,1019.8,44.4,0
"2017-11-07 07:52:42+00",13.8,15.8,,44.8,-24,608,22,1019.8,44.3,0
"2017-11-07 07:57:42+00",12.7,15.7,,44.7,-91,545,8,1019.85,44.2,0
"2017-11-07 08:02:42+00",14.1,18.1,,44.5,-103,616,18,1019.75,44.1,0
"2017-11-07 08:07:42+00",15.7,18.7,,44.5,-85,691,13,1019.73,43.9,0
"2017-11-07 08:12:42+00",16.8,19.8,,44.5,-56,733,10,1019.83,43.9,0
"2017-11-07 08:17:42+00",14.7,18.7,,44.4,-53,637,37,1019.81,43.8,0
"2017-11-07 08:22:42+00",14.8,16.8,,44.2,-134,630,8,1019.91,43.7,0
"2017-11-07 08:27:42+00",16.7,18.7,,44.1,-172,716,14,1019.94,43.7,0
"2017-11-07 08:32:42+00",16.1,19.1,,43.9,-172,684,16,1020.11,43.6,0
"2017-11-07 08:37:42+00",15.6,18.6,,43.8,-149,671,9,1020.13,43.4,0
"2017-11-07 08:42:42+00",16.7,19.7,,43.7,-117,721,21,1020.01,43.3,0
"2017-11-07 08:47:42+00",14.9,15.9,,43.7,-93,650,5,1020,43.2,0
"2017-11-07 08:52:42+00",15.4,17.4,,43.6,-87,669,10,1019.91,43.2,0
"2017-11-07 08:57:42+00",14.0,16.0,,43.6,50,615,9,1019.75,43.1,0
"2017-11-07 09:02:42+00",15.3,17.3,,43.8,27,678,11,1019.54,43.2,0
"2017-11-07 09:07:42+00",16.5,20.5,,43.6,108,706,8,1019.44,43,0
"2017-11-07 09:12:42+00",15.9,19.9,,43.6,26,699,17,1019.65,43,0
"2017-11-07 09:17:42+00",14.3,16.3,,43.6,0,623,28,1019.83,43,0
"2017-11-07 09:22:42+00",15.7,17.7,,43.6,13,685,0,1020.11,42.9,0
"2017-11-07 09:27:42+00",14.2,16.2,,43.5,-83,618,17,1020.19,42.8,0
"2017-11-07 09:32:42+00",14.9,17.9,,43.4,-49,654,24,1020.15,42.8,0
"2017-11-07 09:37:42+00",11.9,14.9,,43.2,-145,501,39,1020.4,42.7,0
"2017-11-07 09:42:42+00",12.7,16.7,,42.8,-57,551,26,1020.38,42.5,0
"2017-11-07 09:47:42+00",12.8,15.8,,42.7,-18,557,11,1020.28,42.3,0
"2017-11-07 09:52:42+00",13.1,15.1,,42.4,-18,573,19,1020.22,42.1,0
"2017-11-07 09:57:42+00",15.6,18.6,,42.4,-19,681,7,1020.12,41.9,0
"2017-11-07 10:02:42+00",15.0,18.0,,42.3,24,653,-4,1020.35,41.8,0
"2017-11-07 10:07:42+00",14.1,18.1,,42.1,39,625,8,1020.23,41.6,0
"2017-11-07 10:12:42+00",12.9,14.9,,42.2,19,572,0,1020.41,41.5,0
"2017-11-07 10:17:42+00",12.5,14.5,,42.2,-32,544,14,1020.63,41.5,0
"2017-11-07 10:22:42+00",12.3,14.3,,42.1,34,532,22,1020.54,41.5,0
"2017-11-07 10:27:42+00",12.2,14.2,,42.1,55,527,20,1020.4,41.4,0
"2017-11-07 10:32:42+00",12.0,15.0,,42,61,505,22,1020.39,41.3,0
"2017-11-07 10:37:42+00",12.4,14.4,,42,55,531,10,1020.39,41.3,0
"2017-11-07 10:42:42+00",13.1,16.1,,42,6,565,19,1020.39,41.3,0
"2017-11-07 10:47:42+00",14.0,16.0,,42,7,616,9,1020.37,41.3,0
"2017-11-07 10:52:42+00",13.1,17.1,,41.9,-16,580,12,1020.62,41.2,0
"2017-11-07 10:57:42+00",12.0,14.0,,41.7,-37,518,30,1020.8,41.1,0
"2017-11-07 11:02:42+00",14.0,16.0,,41.6,-14,615,8,1020.92,41.1,0
"2017-11-07 11:07:42+00",12.5,14.5,,41.5,8,550,10,1020.79,40.9,0
"2017-11-07 11:12:42+00",12.0,13.0,,41.4,-40,527,14,1020.78,40.9,0
"2017-11-07 11:17:42+00",13.7,15.7,,41.4,42,592,8,1020.53,40.7,0
"2017-11-07 11:22:42+00",12.5,13.5,,41.4,79,535,14,1020.42,40.7,0
"2017-11-07 11:27:42+00",11.8,13.8,,41.6,45,507,13,1020.69,40.9,0
"2017-11-07 11:32:42+00",13.9,15.9,,41.8,50,597,5,1020.72,41,0
"2017-11-07 11:37:42+00",14.1,17.1,,41.8,133,588,0,1020.75,41.1,0
"2017-11-07 11:42:42+00",14.5,15.5,,41.9,113,615,0,1020.68,41.2,0
"2017-11-07 11:47:42+00",13.9,16.9,,41.8,125,587,-9,1020.69,41.2,0
"2017-11-07 11:52:42+00",10.7,13.7,,41.7,113,430,15,1020.76,41.2,0
"2017-11-07 11:57:42+00",12.9,15.9,,42,171,520,-12,1020.71,41.4,0
"2017-11-07 12:02:42+00",12.2,15.2,,42.3,138,499,5,1020.77,41.6,0
"2017-11-07 12:07:42+00",13.2,16.2,,42.3,194,521,0,1020.69,41.8,0
"2017-11-07 12:12:42+00",11.9,15.9,,42.4,264,423,3,1020.7,42,0
"2017-11-07 12:17:42+00",11.7,14.7,,42.3,238,439,-2,1020.63,42.1,15
"2017-11-07 12:22:42+00",12.2,14.2,,42.7,284,438,0,1020.7,42.5,24.7
"2017-11-07 12:27:42+00",9.3,12.3,,43.2,194,340,8,1020.65,43.4,24.8
"2017-11-07 12:32:42+00",9.6,12.6,,44,170,359,0,1020.77,44.2,1.1
"2017-11-07 12:37:42+00",10.3,12.3,,44.1,131,410,-3,1021.05,44.3,6.8
"2017-11-07 12:42:42+00",10.2,11.2,,44.3,67,436,1,1021.3,44.4,6.2
"2017-11-07 12:47:42+00",10.4,11.4,,44.5,81,440,-5,1021.41,44.6,36
"2017-11-07 12:52:42+00",10.7,12.7,,44.4,-110,461,32,1021.57,44.8,12.1
"2017-11-07 12:57:42+00",11.4,13.4,,43.9,-92,487,5,1021.64,44.6,18.7
"2017-11-07 13:02:42+00",10.4,11.4,,43.8,-133,441,26,1021.78,44.5,16.4
"2017-11-07 13:07:42+00",8.7,10.7,,43.8,-98,370,39,1021.5,44.5,59.7
"2017-11-07 13:12:42+00",10.6,11.6,,43.9,-67,457,18,1021.46,44.8,37.4
"2017-11-07 13:17:42+00",10.1,13.1,,44,-36,438,-1,1021.56,44.9,69.3
"2017-11-07 13:22:42+00",12.6,14.6,,44.2,8,551,8,1021.65,45,39.2
"2017-11-07 13:27:42+00",13.6,15.6,,44.5,15,597,6,1021.5,45.3,107.1
"2017-11-07 13:32:42+00",14.0,16.0,,44.9,9,607,2,1021.63,45.8,55.8
"2017-11-07 13:37:42+00",12.0,14.0,,45.3,95,497,9,1021.64,46.3,40.1
"2017-11-07 13:42:42+00",11.9,14.9,,45.8,-25,528,23,1021.61,46.6,54.1
"2017-11-07 13:47:42+00",14.4,15.4,,46.1,10,627,12,1021.72,46.9,56.3
"2017-11-07 13:52:42+00",14.5,16.5,,46.3,67,622,2,1021.55,47.2,38.8
"2017-11-07 13:57:42+00",13.5,15.5,,46.7,127,562,-2,1021.36,47.4,21.9
"2017-11-07 14:02:42+00",12.8,14.8,,47,97,555,-7,1021.28,47.6,68.5
"2017-11-07 14:07:42+00",12.1,15.1,,47.7,79,517,21,1021.24,48.7,90.8
"2017-11-07 14:12:42+00",12.5,14.5,,48,91,523,-12,1021.28,49.1,67.4
"2017-11-07 14:17:42+00",11.3,14.3,,48.4,53,484,29,1021.31,49.4,85.6
"2017-11-07 14:22:42+00",13.0,16.0,,48.6,84,557,15,1021.39,49.7,88
"2017-11-07 14:27:42+00",12.8,14.8,,48.9,14,554,12,1021.37,49.9,47.3
"2017-11-07 14:32:42+00",11.9,12.9,,49.1,87,501,2,1021.36,50,44.9
"2017-11-07 14:37:42+00",11.4,13.4,,49.3,114,470,21,1021.12,50,51.2
"2017-11-07 14:42:42+00",12.9,14.9,,49.6,22,562,23,1021.08,50.2,30.5
"2017-11-07 14:47:42+00",12.8,13.8,,49.7,95,548,9,1021.04,50.3,25.2
"2017-11-07 14:52:42+00",14.6,16.6,,49.6,149,603,-7,1020.84,50.2,75.4
"2017-11-07 14:57:42+00",13.6,15.6,,49.9,63,586,-10,1020.87,50.7,65.8
"2017-11-07 15:02:42+00",13.2,17.2,,50.2,82,571,7,1020.95,50.9,58.6
"2017-11-07 15:07:42+00",13.7,15.7,,50.3,104,586,-1,1020.96,51.2,80.8
"2017-11-07 15:12:42+00",13.2,16.2,,50.5,57,564,7,1021.01,51.4,60.1
"2017-11-07 15:17:42+00",14.2,16.2,,50.6,66,619,12,1021.1,51.6,22.9
"2017-11-07 15:22:42+00",12.6,15.6,,50.6,139,520,4,1021.11,51.3,15.2
"2017-11-07 15:27:42+00",13.3,15.3,,50.7,68,571,21,1021.03,51.3,3.8
"2017-11-07 15:32:42+00",16.1,19.1,,50.6,56,707,32,1020.93,51,1.9
"2017-11-07 15:37:42+00",16.2,17.2,,50.6,143,688,-1,1020.6,51,5.2
"2017-11-07 15:42:42+00",14.4,16.4,,50.8,145,594,9,1020.79,51.1,4.2
"2017-11-07 15:47:42+00",15.7,16.7,,50.6,55,684,9,1020.86,51,11.3
"2017-11-07 15:52:42+00",16.7,19.7,,50.6,119,722,14,1020.55,51,8.3
"2017-11-07 15:57:42+00",14.1,17.1,,50.8,111,605,25,1020.38,51.1,18.1
"2017-11-07 16:02:42+00",15.7,18.7,,50.8,149,644,-4,1020.28,51.1,18.3
"2017-11-07 16:07:42+00",16.4,19.4,,50.9,159,679,6,1020.23,51.2,5.5
"2017-11-07 16:12:42+00",15.6,16.6,,50.9,158,649,-1,1020.22,51.1,0.2
"2017-11-07 16:17:42+00",13.1,16.1,,51,179,525,21,1019.99,51.1,3.7
"2017-11-07 16:22:42+00",15.0,18.0,,51.4,247,571,17,1020.15,51.5,4
"2017-11-07 16:27:42+00",12.8,16.8,,51.6,194,493,41,1020.38,51.7,1.6
"2017-11-07 16:32:42+00",17.3,20.3,,51.7,341,655,25,1020.25,51.8,0.2
"2017-11-07 16:37:42+00",19.4,20.4,,51.5,461,706,15,1020.03,51.8,0.9
"2017-11-07 16:42:42+00",20.0,24.0,,51.5,475,734,21,1019.95,51.8,11.9
"2017-11-07 16:47:42+00",20.7,22.7,,51.4,540,678,21,1019.89,51.8,3.5
"2017-11-07 16:52:42+00",20.2,23.2,,51.3,420,771,15,1019.79,51.7,10
"2017-11-07 16:57:42+00",20.3,24.3,,51.1,481,709,25,1019.86,51.4,1.9
"2017-11-07 17:02:42+00",19.5,22.5,,51.1,483,667,21,1019.86,51.4,0
"2017-11-07 17:07:42+00",20.0,23.0,,50.9,459,730,10,1019.35,51.1,0.2
"2017-11-07 17:12:42+00",20.8,24.8,,50.7,464,740,26,1019.13,51,0
"2017-11-07 17:17:42+00",23.6,25.6,,50.4,564,860,14,1019.13,50.7,0.1
"2017-11-07 17:22:42+00",21.0,25.0,,50.3,472,768,16,1019.23,50.5,0.3
"2017-11-07 17:27:42+00",22.2,25.2,,50.3,530,787,-1,1019.09,50.4,0
"2017-11-07 17:32:42+00",19.0,22.0,,50.1,410,720,13,1019.27,50.2,0.1
"2017-11-07 17:37:42+00",20.6,24.6,,50.2,410,772,21,1019.03,50.2,0.2
"2017-11-07 17:42:42+00",21.7,24.7,,50,515,781,-6,1018.82,50.1,0
"2017-11-07 17:47:42+00",20.4,23.4,,49.9,438,763,9,1019.15,50,0
"2017-11-07 17:52:42+00",20.9,28.9,,49.7,369,818,-1,1019.26,49.8,0
"2017-11-07 17:57:42+00",18.9,21.9,,49.6,355,716,-7,1019.19,49.6,0
"2017-11-07 18:02:42+00",23.0,26.0,,49.4,526,861,9,1018.62,49.5,0
"2017-11-07 18:07:42+00",22.9,27.9,,49.5,499,848,11,1018.27,49.5,0
"2017-11-07 18:12:42+00",20.0,25.0,,49.6,495,707,22,1018.51,49.5,0
"2017-11-07 18:17:42+00",18.8,21.8,,50,491,635,34,1018.36,50,0
"2017-11-07 18:22:42+00",22.0,25.0,,50,668,651,36,1018.16,50,0
"2017-11-07 18:27:42+00",26.8,28.8,,50,853,765,6,1017.82,50.1,0
"2017-11-07 18:32:42+00",23.9,26.9,,50.1,657,738,13,1017.68,50.2,0
"2017-11-07 18:37:42+00",23.4,28.4,,50.2,652,738,21,1017.2,50.2,0
"2017-11-07 18:42:42+00",25.7,29.7,,50.4,722,801,7,1017.37,50.4,0
"2017-11-07 18:47:42+00",24.6,28.6,,50.3,711,759,16,1017.51,50.1,0
"2017-11-07 18:52:42+00",21.4,23.4,,50.2,572,701,23,1017.74,49.8,0
"2017-11-07 18:57:42+00",19.4,23.4,,50.1,409,728,7,1018.06,49.6,0
"2017-11-07 19:02:42+00",15.9,18.9,,50,219,640,3,1018.45,49.4,0
"2017-11-07 19:07:42+00",18.8,21.8,,49.7,-140,811,21,1018.91,49.1,0
"2017-11-07 19:12:42+00",18.9,20.9,,48.7,-221,789,21,1018.93,48.5,0
"2017-11-07 19:17:42+00",17.3,20.3,,48.1,0,763,19,1018.58,47.8,0
"2017-11-07 19:22:42+00",15.3,18.3,,47.8,-23,671,13,1018.67,47.4,0
"2017-11-07 19:27:42+00",17.3,20.3,,47.6,-98,743,21,1018.64,47.1,0
"2017-11-07 19:32:42+00",19.2,21.2,,47.3,-51,832,17,1018.6,46.9,0
"2017-11-07 19:37:42+00",19.0,23.0,,46.9,-160,810,29,1018.64,46.6,0
"2017-11-07 19:42:42+00",18.5,20.5,,46.5,-203,770,27,1018.88,46.4,0
"2017-11-07 19:47:42+00",18.8,21.8,,46.2,25,822,2,1018.37,46,0
"2017-11-07 19:52:42+00",19.9,21.9,,45.9,33,829,39,1018.21,45.6,0
"2017-11-07 19:57:42+00",19.0,24.0,,45.8,49,812,41,1018.19,45.4,0
"2017-11-07 20:02:42+00",19.4,23.4,,45.6,196,785,35,1017.56,45.2,0
"2017-11-07 20:07:42+00",21.0,26.0,,45.6,54,902,64,1017.73,45.1,0
"2017-11-07 20:12:42+00",20.5,23.5,,45.7,80,880,38,1017.86,45.2,0
"2017-11-07 20:17:42+00",23.5,28.5,,45.5,232,896,96,1017.55,45,0
"2017-11-07 20:22:42+00",18.6,21.6,,45.5,302,734,4,1017.76,45,0
"2017-11-07 20:27:42+00",22.0,26.0,,45.5,96,965,58,1017.53,45,0
"2017-11-07 20:32:42+00",18.2,23.2,,45.6,211,769,10,1017.74,45.1,0
"2017-11-07 20:37:42+00",19.8,24.8,,45.5,309,769,40,1017.69,45,0
"2017-11-07 20:42:42+00",17.2,20.2,,45.5,302,668,1,1017.87,45,0
"2017-11-07 20:47:42+00",20.0,24.0,,45.4,311,774,25,1017.56,45,0
"2017-11-07 20:52:42+00",15.9,19.9,,45.5,222,651,8,1017.55,45,0
"2017-11-07 20:57:42+00",17.0,22.0,,45.5,294,658,7,1017.57,45,0
"2017-11-07 21:02:42+00",16.1,19.1,,45.5,290,621,13,1017.55,45.1,0
"2017-11-07 21:07:42+00",15.8,19.8,,45.6,165,649,15,1017.62,45.2,0
"2017-11-07 21:12:42+00",18.1,22.1,,45.4,405,653,1,1017.34,45,0
"2017-11-07 21:17:42+00",16.4,21.4,,45.4,310,633,24,1016.87,45,0
"2017-11-07 21:22:42+00",21.2,25.2,,45.3,359,784,62,1016.52,44.8,0
"2017-11-07 21:27:42+00",17.4,21.4,,45.4,312,668,10,1016.71,44.9,0
"2017-11-07 21:32:42+00",17.4,20.4,,45.5,172,726,12,1017.17,45,0
"2017-11-07 21:37:42+00",15.4,17.4,,45.5,-42,676,45,1017.48,45,0
"2017-11-07 21:42:42+00",19.7,22.7,,45.4,-122,851,20,1017.94,44.9,0
"2017-11-07 21:47:42+00",17.3,22.3,,45.1,-324,676,51,1018.41,44.9,0
"2017-11-07 21:52:42+00",18.8,21.8,,44.6,-233,792,31,1018.29,44.5,0
"2017-11-07 21:57:42+00",18.9,22.9,,44.2,52,798,28,1017.68,44.2,0
"2017-11-07 22:02:42+00",19.5,25.5,,44.4,122,812,63,1017.15,44.1,0
"2017-11-07 22:07:42+00",21.7,25.7,,44.5,-32,971,58,1017.02,44.1,0
"2017-11-07 22:12:42+00",20.1,25.1,,44.7,93,804,102,1017.39,44.3,0
"2017-11-07 22:17:42+00",21.0,26.0,,44.7,79,965,-17,1017.79,44.3,0
"2017-11-07 22:22:42+00",18.4,22.4,,44.6,105,800,1,1017.65,44.3,0
"2017-11-07 22:27:42+00",17.4,20.4,,44.4,114,740,24,1017.58,44.1,0
"2017-11-07 22:32:42+00",17.2,20.2,,44.4,133,744,25,1017.66,44,0
"2017-11-07 22:37:42+00",20.7,25.7,,44.8,6,902,52,1017.51,44.3,0
"2017-11-07 22:42:42+00",19.7,22.7,,44.4,15,842,49,1018.14,44.1,0
"2017-11-07 22:47:42+00",19.5,22.5,,44.5,-1,893,6,1018.1,44.1,0
"2017-11-07 22:52:42+00",17.3,22.3,,44.3,-33,725,59,1018.37,44,0
"2017-11-07 22:57:42+00",21.5,25.5,,44.3,-150,942,36,1018.56,43.9,0
"2017-11-07 23:02:42+00",20.1,23.1,,44.1,43,881,30,1018.49,43.8,0
"2017-11-07 23:07:42+00",19.9,21.9,,43.9,138,851,37,1018.36,43.6,0
"2017-11-07 23:12:42+00",21.0,25.0,,43.9,29,927,40,1018.42,43.6,0
"2017-11-07 23:17:42+00",25.0,29.0,,43.8,-208,1416,-182,1018.18,43.5,0
"2017-11-07 23:22:42+00",22.7,26.7,,43.9,34,1013,52,1018.21,43.5,0
"2017-11-07 23:27:42+00",23.1,28.1,,44,-65,1164,-80,1018.46,43.6,0
"2017-11-07 23:32:42+00",23.1,27.1,,44.1,51,983,51,1018.39,43.6,0
"2017-11-07 23:37:42+00",24.9,28.9,,44.1,-59,1074,76,1018.4,43.6,0
"2017-11-07 23:42:42+00",24.7,28.7,,43.9,76,1197,-62,1018.26,43.6,0
"2017-11-07 23:47:42+00",20.9,25.9,,44.1,256,857,9,1017.92,43.5,0
"2017-11-07 23:52:42+00",19.8,23.8,,44,176,859,-11,1017.94,43.6,0
"2017-11-07 23:57:42+00",23.4,27.4,,43.9,-167,1160,-53,1018.79,43.6,0
